Date String (YYYY-MM-DD hh:mm:ss) UTC,Instrument flags,Ambient pressure (hPa),Sample flow (lpm),Bypass flow (lpm),Sample temperature (°C),Ambient temperature (°C),ASC tube jacket temperature (°C),LED temperature (°C),Box temperature (°C),Sample RH (%),Span deviation,Mass concentration (μg/m³),Mass concentration (μg/m³),Mass concentration (μg/m³)
DateTimeUTC,F1_M11,P_M11,Q1_M11,Q2_M11,T1_M11,T2_M11,T3_M11,T4_M11,T5_M11,U1_M11,ZSPAN_M11,X0_M11,X2_M11,X1_M11
2022-07-14 00:00:00,,0828.5,5.00,0.00,29.3,27.2,00.0,38.0,31.1,20.5,0000.0,0010.69,0005.03,0004.27
2022-07-14 00:01:00,,0828.5,5.00,0.00,29.3,27.4,00.0,38.0,31.1,20.5,0000.0,0010.85,0004.99,0004.25
2022-07-14 00:02:00,,0828.5,4.99,0.00,29.3,27.6,00.0,38.0,31.1,20.4,0000.0,0010.92,0004.95,0004.22
2022-07-14 00:03:00,,0828.5,5.01,0.00,29.3,27.8,00.0,38.0,31.2,20.4,0000.0,0011.00,0004.93,0004.19
2022-07-14 00:04:00,,0828.8,4.99,0.00,29.4,28.0,00.0,38.0,31.3,21.0,0000.0,0011.66,0004.87,0004.17
2022-07-14 00:05:00,,0829.0,5.01,0.00,29.4,28.2,00.0,38.1,31.3,21.7,0000.0,0011.13,0004.84,0004.14
2022-07-14 00:06:00,,0828.8,5.00,0.00,29.4,27.9,00.0,38.0,31.3,20.8,0000.0,0010.51,0004.76,0004.11
2022-07-14 00:07:00,,0828.9,5.01,0.00,29.4,27.2,00.0,38.0,31.2,20.4,0000.0,0010.86,0004.72,0004.08
2022-07-14 00:08:00,,0828.9,4.99,0.00,29.3,27.0,00.0,38.0,31.1,20.1,0000.0,0010.99,0004.66,0004.04
2022-07-14 00:09:00,,0828.9,5.01,0.00,29.3,27.1,00.0,38.0,31.0,20.3,0000.0,0010.94,0004.63,0004.01
2022-07-14 00:10:00,,0828.8,5.01,0.00,29.3,27.2,00.0,38.0,31.0,20.5,0000.0,0011.06,0004.60,0003.98
2022-07-14 00:11:00,,0828.7,4.99,0.00,29.3,27.4,00.0,38.0,31.0,20.6,0000.0,0010.74,0004.57,0003.95
2022-07-14 00:12:00,,0828.5,5.02,0.00,29.3,27.7,00.0,38.0,31.1,20.2,0000.0,0010.71,0004.57,0003.92
2022-07-14 00:13:00,,0828.5,5.00,0.00,29.3,27.9,00.0,38.0,31.2,20.4,0000.0,0010.62,0004.54,0003.89
2022-07-14 00:14:00,,0828.6,5.00,0.00,29.3,28.1,00.0,38.0,31.3,20.4,0000.0,0010.63,0004.51,0003.87
2022-07-14 00:15:00,,0828.5,4.99,0.00,29.4,28.2,00.0,38.1,31.4,20.5,0000.0,0009.98,0004.46,0003.84
2022-07-14 00:16:00,,0828.7,4.99,0.00,29.4,28.1,00.0,38.0,31.4,20.5,0000.0,0010.38,0004.42,0003.80
2022-07-14 00:17:00,,0828.7,5.00,0.00,29.4,27.3,00.0,38.0,31.2,20.8,0000.0,0010.49,0004.42,0003.77
2022-07-14 00:18:00,,0828.7,5.00,0.00,29.3,27.0,00.0,38.0,31.2,21.1,0000.0,0010.08,0004.40,0003.74
2022-07-14 00:19:00,,0828.8,5.00,0.00,29.3,27.1,00.0,38.0,31.1,21.5,0000.0,0010.01,0004.43,0003.74
2022-07-14 00:20:00,,0828.9,5.00,0.00,29.3,27.2,00.0,38.0,31.0,21.6,0000.0,0010.62,0004.46,0003.74
2022-07-14 00:21:00,,0828.9,5.00,0.00,29.3,27.4,00.0,38.0,31.1,21.7,0000.0,0010.55,0004.42,0003.74
2022-07-14 00:22:00,,0828.9,5.00,0.00,29.3,27.6,00.0,38.0,31.1,21.5,0000.0,0010.01,0004.41,0003.74
2022-07-14 00:23:00,,0829.1,4.99,0.00,29.3,27.8,00.0,38.0,31.2,21.4,0000.0,0009.76,0004.40,0003.75
2022-07-14 00:24:00,,0829.1,5.01,0.00,29.3,28.0,00.0,38.0,31.3,21.5,0000.0,0009.75,0004.42,0003.76
2022-07-14 00:25:00,,0828.7,4.99,0.00,29.4,28.2,00.0,38.0,31.3,21.5,0000.0,0009.55,0004.41,0003.78
2022-07-14 00:26:00,,0828.7,5.01,0.00,29.4,28.3,00.0,38.1,31.4,21.2,0000.0,0009.28,0004.43,0003.80
2022-07-14 00:27:00,,0829.2,5.01,0.00,29.4,27.9,00.0,38.0,31.3,21.3,0000.0,0008.90,0004.45,0003.82
2022-07-14 00:28:00,,0829.1,4.99,0.00,29.4,27.2,00.0,38.0,31.2,21.7,0000.0,0009.17,0004.46,0003.85
2022-07-14 00:29:00,,0829.3,5.00,0.00,29.3,27.1,00.0,38.0,31.1,21.6,0000.0,0009.28,0004.47,0003.87
2022-07-14 00:30:00,,0829.0,5.00,0.00,29.3,27.1,00.0,38.0,31.0,21.7,0000.0,0009.24,0004.48,0003.88
2022-07-14 00:31:00,,0828.9,4.99,0.00,29.3,27.3,00.0,38.0,31.0,22.0,0000.0,0008.99,0004.45,0003.88
2022-07-14 00:32:00,,0828.9,5.00,0.00,29.3,27.5,00.0,38.0,31.1,22.2,0000.0,0009.06,0004.43,0003.88
2022-07-14 00:33:00,,0829.0,5.01,0.00,29.3,27.7,00.0,38.0,31.1,22.2,0000.0,0008.94,0004.42,0003.90
2022-07-14 00:34:00,,0829.0,4.99,0.00,29.3,27.9,00.0,38.0,31.2,22.3,0000.0,0008.83,0004.40,0003.91
2022-07-14 00:35:00,,0829.1,5.01,0.00,29.3,28.1,00.0,38.0,31.3,22.1,0000.0,0009.07,0004.41,0003.92
2022-07-14 00:36:00,,0829.1,5.00,0.00,29.4,28.3,00.0,38.1,31.3,22.3,0000.0,0009.48,0004.41,0003.93
2022-07-14 00:37:00,,0829.1,5.00,0.00,29.4,28.3,00.0,38.1,31.4,22.3,0000.0,0009.49,0004.44,0003.95
2022-07-14 00:38:00,,0829.1,5.00,0.00,29.4,27.6,00.0,38.0,31.3,22.2,0000.0,0009.49,0004.47,0003.97
2022-07-14 00:39:00,,0829.2,5.01,0.00,29.4,27.1,00.0,38.0,31.2,22.2,0000.0,0009.35,0004.49,0003.99
2022-07-14 00:40:00,,0829.2,4.99,0.00,29.3,27.0,00.0,38.0,31.1,22.1,0000.0,0009.67,0004.51,0004.00
2022-07-14 00:41:00,,0829.2,5.01,0.00,29.3,27.2,00.0,38.0,31.0,22.1,0000.0,0009.64,0004.51,0004.01
2022-07-14 00:42:00,,0829.3,5.00,0.00,29.3,27.3,00.0,38.0,31.0,21.9,0000.0,0009.58,0004.50,0004.03
2022-07-14 00:43:00,,0829.3,4.99,0.00,29.3,27.5,00.0,38.0,31.1,21.9,0000.0,0009.23,0004.53,0004.04
2022-07-14 00:44:00,,0829.2,5.01,0.00,29.3,27.7,00.0,38.0,31.2,22.1,0000.0,0009.48,0004.54,0004.04
2022-07-14 00:45:00,,0829.2,5.00,0.00,29.3,27.9,00.0,38.0,31.3,22.3,0000.0,0009.56,0004.56,0004.05
2022-07-14 00:46:00,,0829.2,5.00,0.00,29.4,28.1,00.0,38.1,31.3,22.2,0000.0,0009.75,0004.57,0004.04
2022-07-14 00:47:00,,0829.3,5.00,0.00,29.4,28.3,00.0,38.1,31.4,22.1,0000.0,0009.34,0004.60,0004.03
2022-07-14 00:48:00,,0829.3,5.00,0.00,29.4,28.1,00.0,38.1,31.4,22.2,0000.0,0010.23,0004.63,0004.02
2022-07-14 00:49:00,,0829.3,5.00,0.00,29.4,27.3,00.0,38.0,31.3,22.3,0000.0,0010.70,0004.62,0004.01
2022-07-14 00:50:00,,0829.5,5.00,0.00,29.3,27.0,00.0,38.0,31.2,22.1,0000.0,0010.69,0004.59,0003.97
2022-07-14 00:51:00,,0829.4,5.00,0.00,29.3,27.0,00.0,38.0,31.1,22.2,0000.0,0010.14,0004.57,0003.95
2022-07-14 00:52:00,,0829.4,5.01,0.00,29.3,27.2,00.0,38.0,31.0,22.0,0000.0,0010.24,0004.56,0003.93
2022-07-14 00:53:00,,0829.4,5.01,0.00,29.3,27.4,00.0,38.0,31.0,22.2,0000.0,0010.11,0004.54,0003.91
2022-07-14 00:54:00,,0829.4,4.99,0.00,29.3,27.6,00.0,38.0,31.1,22.1,0000.0,0010.57,0004.55,0003.89
2022-07-14 00:55:00,,0829.5,5.01,0.00,29.3,27.8,00.0,38.0,31.2,22.1,0000.0,0010.89,0004.54,0003.88
2022-07-14 00:56:00,,0829.5,4.99,0.00,29.3,28.0,00.0,38.0,31.3,22.0,0000.0,0011.25,0004.50,0003.85
2022-07-14 00:57:00,,0829.5,5.00,0.00,29.4,28.1,00.0,38.1,31.3,21.8,0000.0,0010.76,0004.46,0003.83
2022-07-14 00:58:00,,0829.5,5.00,0.00,29.4,28.3,00.0,38.1,31.4,22.0,0000.0,0010.75,0004.42,0003.81
2022-07-14 00:59:00,,0829.5,4.99,0.00,29.4,28.2,00.0,38.1,31.4,21.9,0000.0,0010.00,0004.36,0003.79
